TimeEDT,TemperatureF,Dew PointF,Humidity,Sea Level PressureIn,VisibilityMPH,Wind Direction,Wind SpeedMPH,Gust SpeedMPH,PrecipitationIn,Events,Conditions,WindDirDegrees,DateUTC
12:51 AM,33.1,21.0,61,29.77,10.0,West,6.9,-,N/A,,Overcast,270,2013-03-24 04:51:00
1:51 AM,33.1,21.0,61,29.77,10.0,WNW,9.2,-,N/A,,Overcast,290,2013-03-24 05:51:00
2:51 AM,33.1,21.9,64,29.77,10.0,WNW,8.1,-,N/A,,Overcast,300,2013-03-24 06:51:00
3:51 AM,33.1,21.9,64,29.76,10.0,WNW,9.2,20.7,N/A,,Mostly Cloudy,300,2013-03-24 07:51:00
4:51 AM,30.9,21.0,67,29.76,10.0,WNW,6.9,-,N/A,,Mostly Cloudy,300,2013-03-24 08:51:00
5:51 AM,30.9,21.0,67,29.78,10.0,WNW,4.6,-,N/A,,Mostly Cloudy,290,2013-03-24 09:51:00
6:51 AM,30.9,21.0,67,29.79,10.0,WNW,12.7,-,N/A,,Clear,290,2013-03-24 10:51:00
7:51 AM,33.1,21.9,64,29.83,10.0,NW,10.4,16.1,N/A,,Scattered Clouds,310,2013-03-24 11:51:00
8:51 AM,35.1,23.0,61,29.82,10.0,NW,17.3,24.2,N/A,,Mostly Cloudy,320,2013-03-24 12:51:00
9:51 AM,36.0,21.9,57,29.80,10.0,NW,17.3,26.5,N/A,,Clear,310,2013-03-24 13:51:00
10:51 AM,37.9,21.9,53,29.79,10.0,NW,15.0,24.2,N/A,,Partly Cloudy,320,2013-03-24 14:51:00
11:51 AM,39.0,21.0,49,29.80,10.0,WNW,13.8,20.7,N/A,,Partly Cloudy,300,2013-03-24 15:51:00
12:51 PM,39.9,21.9,49,29.80,10.0,NW,10.4,23.0,N/A,,Partly Cloudy,310,2013-03-24 16:51:00
1:51 PM,41.0,21.9,47,29.78,10.0,NW,13.8,17.3,N/A,,Scattered Clouds,320,2013-03-24 17:51:00
2:51 PM,42.1,21.9,45,29.78,10.0,NW,16.1,21.9,N/A,,Clear,320,2013-03-24 18:51:00
3:51 PM,43.0,21.9,43,29.76,10.0,NNW,10.4,17.3,N/A,,Partly Cloudy,330,2013-03-24 19:51:00
4:51 PM,43.0,21.0,42,29.74,10.0,NW,10.4,-,N/A,,Clear,320,2013-03-24 20:51:00
5:51 PM,42.1,21.0,43,29.75,10.0,NW,10.4,-,N/A,,Clear,310,2013-03-24 21:51:00
6:51 PM,39.0,23.0,53,29.77,10.0,NW,9.2,-,N/A,,Clear,320,2013-03-24 22:51:00
7:51 PM,37.0,21.9,54,29.79,10.0,NNW,6.9,-,N/A,,Scattered Clouds,340,2013-03-24 23:51:00
8:51 PM,36.0,21.9,57,29.79,10.0,NNW,5.8,-,N/A,,Overcast,340,2013-03-25 00:51:00
9:51 PM,33.1,21.9,64,29.81,10.0,NW,5.8,-,N/A,,Mostly Cloudy,320,2013-03-25 01:51:00
10:51 PM,28.9,21.0,72,29.80,10.0,Calm,Calm,-,N/A,,Clear,0,2013-03-25 02:51:00
11:51 PM,26.1,21.0,81,29.80,10.0,Calm,Calm,-,N/A,,Clear,0,2013-03-25 03:51:00